Location: Devore Heights
(34.2372°N, 117.4156°W)
Time: 01:34:45
(UTC+00:00)

Altair - Pass Details

Date: 17 September 2024
Orbit: 1501 x 1682 km, 47.2° (Epoch: 09 October)

Event Time Altitude Azimuth Distance (km) Brightness Sun altitude
Exits shadow 08:53:25 33° 65° (ENE) 2,534 8.7 -50.3°
Drops below altitude 10° 08:58:18 10° 57° (ENE) 3,939 10.0 -49.8°
Sets 09:01:30 0° 56° (NE) 4,936 10.7 -49.5°
